Skip Page Navigation
NASA JPL Caltech
NASA Logo - Jet Propulsion Laboratory + View the NASA Portal
+ Center for Near-Earth Object Studies
JPL Home Earth Solar System Stars & Galaxies Technology
JPL Solar System Dynamics
BODIES ORBITS EPHEMERIDES TOOLS PHYSICAL DATA DISCOVERY FAQ SITE MAP
IMPORTANT: The SSD Announcement email list is now available. Major changes are coming in the near future, including possible hostname and/or URL changes. To be notified of such changes, subscribe to this email list.

Please visit this page for more details.


JPL Small-Body Database Browser
Search: [ help ]  
56548 (2000 HZ74)
Classification: Main-belt Asteroid          SPK-ID: 2056548
Ephemeris | Orbit Diagram | Orbital Elements | Mission Design | Physical Parameters | Discovery Circumstances | Close-Approach Data ]

[ show orbit diagram ]
Orbital Elements at Epoch 2458600.5 (2019-Apr-27.0) TDB
Reference: JPL 18 (heliocentric ecliptic J2000)
 Element Value Uncertainty (1-sigma)   Units 
e .04440461746752235 4.1464e-08  
a 2.298892717967474 1.0859e-08 au
q 2.196811266227256 9.7422e-08 au
i 6.360763331158008 5.7926e-06 deg
node 168.0372386938826 3.6293e-05 deg
peri 254.3208235675754 7.5036e-05 deg
M 316.0518046977176 6.4923e-05 deg
tp 2458755.922907413214
(2019-Sep-29.42290741)
0.00022973 TDB
period 1273.140939779419
3.49
9.0206e-06
2.47e-08
d
yr
n .2827652373368598 2.0035e-09 deg/d
Q 2.400974169707693 1.1341e-08 au
  Orbit Determination Parameters
   # obs. used (total)      712  
   data-arc span      7649 days (20.94 yr)  
   first obs. used      1998-12-16  
   last obs. used      2019-11-25  
   planetary ephem.      DE431  
   SB-pert. ephem.      SB431-N16  
   condition code      0  
   norm. resid. RMS      .55404  
   source      ORB  
   producer      Otto Matic  
   solution date      2019-Dec-04 04:53:07  

Additional Information
 Earth MOID = 1.21776 au 
 Jupiter MOID = 2.71014 au 
 T_jup = 3.583 
[ show covariance matrix ]

Ephemeris | Orbit Diagram | Orbital Elements | Mission Design | Physical Parameters | Discovery Circumstances | Close-Approach Data ]

Physical Parameter Table
Parameter Symbol Value Units Sigma Reference Notes
absolute magnitude H 15.7   n/a MPO449365  
diameter diameter 4.102 km 0.145 urn:nasa:pds:neowise_diameters_albedos::2.0[mainbelt] (http://adsabs.harvard.edu/abs/2011ApJ...741...68M)  
rotation period rot_per 6.35 h n/a LCDB (Rev. 2019-January); Warner et al., 2009 Result based on less than full coverage, so that the period may be wrong by 30 percent or so.
Published Reference List:
[Polishook, D.; Ofek, O.E.; Waszczak, A.; Kulkarni, S.R. (2012) ACM 2012, #6347. Supplemental material.]
[Waszczak, A.; Chang, C.-K.; Ofeck, E.O.; Laher, F.; et al. (2015) Astron. J. 150, A75.]
geometric albedo albedo 0.046   0.011 urn:nasa:pds:neowise_diameters_albedos::2.0[mainbelt] (http://adsabs.harvard.edu/abs/2011ApJ...741...68M)  

56548 (2000 HZ74)          Discovered 2000-Apr-27 by LINEAR at Socorro
Reference: 20030318/Numbers.arcLast Updated: 2004-04-19

[ show close-approach data ]
Alternate Designations
 2000 HZ74 = 2001 QF236 
Ephemeris | Orbit Diagram | Orbital Elements | Mission Design | Physical Parameters | Discovery Circumstances | Close-Approach Data ]
ABOUT SSD CREDITS/AWARDS PRIVACY/COPYRIGHT GLOSSARY LINKS
FirstGov 2020-Jan-21 06:22 UT
(server date/time)  
NASA Home Page
Site Manager:   Ryan S. Park
Webmaster  Alan B. Chamberlin